Location: Newark
(20.5800°N, 87.1197°W)
Time: 08:25:50
(UTC+00:00)

OTV 5 (USA 277) - Visible Passes

Search period start: 17 July 2019 00:00
Search period end: 27 July 2019 00:00
Orbit: 299 x 335 km, 54.5° (Epoch: 13 July)

Date Brightness Start Highest point End Pass type
(mag) Time Alt. Az. Time Alt. Az. Time Alt. Az.
17 Jul ? 00:56:57 10° N 00:59:23 26° NE 01:01:48 10° ESE visible
18 Jul ? 01:11:10 10° NW 01:13:56 60° SW 01:16:29 11° SSE visible
19 Jul ? 01:26:49 10° W 01:28:22 14° WSW 01:29:54 10° SSW visible
